When you browse on this site, cookies collect data to enhance your experience and personalize the content and advertising you see.
Visit our Privacy Policy to learn more. By continuing to use the site, you agree to this use of cookies and data.
  • In Österreich
  • Länderverzeichnis
  • Für 7 Tage
  • Wassertemperatur
  • Wetterkarte
  • News
  • Widgets
  • user-avatar
    Anmelden

    Stündliche Wetter Hlukhove

    Heute, 24 Oktober, Donnerstag

    Zeit Temperatur Niederschläge Wind Luftdruck Luftfeuchtigkeit
    00:00 +13°C° 0 mm 2 m/S 752 mmHg 73%
    01:00 +12°C° 0 mm 1 m/S 752 mmHg 74%
    02:00 +12°C° 0 mm 1 m/S 752 mmHg 75%
    03:00 +12°C° 0 mm 1 m/S 752 mmHg 76%
    04:00 +12°C° 0 mm 1 m/S 752 mmHg 76%
    05:00 +12°C° 0 mm 1 m/S 751 mmHg 77%
    06:00 +12°C° 0 mm 1 m/S 751 mmHg 75%
    07:00 +13°C° 0 mm 1 m/S 752 mmHg 73%
    08:00 +13°C° 0 mm 1 m/S 752 mmHg 71%
    09:00 +15°C° 0 mm 1 m/S 752 mmHg 67%
    10:00 +18°C° 0 mm 1 m/S 752 mmHg 62%
    11:00 +19°C° 0 mm 1 m/S 752 mmHg 58%
    12:00 +20°C° 0 mm 1 m/S 751 mmHg 58%
    13:00 +20°C° 0 mm 2 m/S 751 mmHg 57%
    14:00 +20°C° 0 mm 2 m/S 751 mmHg 56%
    15:00 +19°C° 0 mm 2 m/S 751 mmHg 63%
    16:00 +19°C° 0 mm 1 m/S 751 mmHg 69%
    17:00 +16°C° 0 mm 1 m/S 751 mmHg 75%
    18:00 +16°C° 0 mm 1 m/S 751 mmHg 78%
    19:00 +15°C° 0 mm 1 m/S 751 mmHg 81%
    20:00 +14°C° 0 mm 1 m/S 751 mmHg 85%
    21:00 +14°C° 0 mm 1 m/S 751 mmHg 86%
    22:00 +13°C° 0 mm 1 m/S 751 mmHg 87%
    23:00 +13°C° 0 mm 1 m/S 751 mmHg 88%

    Morgen, 25 Oktober, Freitag

    Zeit Temperatur Niederschläge Wind Luftdruck Luftfeuchtigkeit
    00:00 +13°C° 0 mm 1 m/S 751 mmHg 89%
    01:00 +12°C° 0 mm 1 m/S 751 mmHg 89%
    02:00 +12°C° 0 mm 1 m/S 751 mmHg 89%
    03:00 +12°C° 0 mm 1 m/S 751 mmHg 90%
    04:00 +12°C° 0 mm 1 m/S 751 mmHg 90%
    05:00 +11°C° 0 mm 1 m/S 751 mmHg 91%
    06:00 +12°C° 0 mm 1 m/S 751 mmHg 89%
    07:00 +12°C° 0 mm 1 m/S 752 mmHg 86%
    08:00 +13°C° 0 mm 1 m/S 752 mmHg 84%
    09:00 +14°C° 0 mm 1 m/S 752 mmHg 76%
    10:00 +16°C° 0 mm 1 m/S 752 mmHg 69%
    11:00 +17°C° 0 mm 2 m/S 752 mmHg 61%
    12:00 +19°C° 0 mm 1 m/S 752 mmHg 57%
    13:00 +20°C° 0 mm 1 m/S 752 mmHg 53%
    14:00 +18°C° 0 mm 0 m/S 752 mmHg 48%
    15:00 +17°C° 0 mm 0 m/S 752 mmHg 53%
    16:00 +16°C° 0 mm 1 m/S 751 mmHg 57%
    17:00 +15°C° 0 mm 1 m/S 751 mmHg 62%
    18:00 +14°C° 0 mm 1 m/S 751 mmHg 65%
    19:00 +14°C° 0 mm 1 m/S 751 mmHg 69%
    20:00 +13°C° 0 mm 2 m/S 752 mmHg 72%
    21:00 +13°C° 0 mm 2 m/S 752 mmHg 75%
    22:00 +12°C° 0 mm 1 m/S 752 mmHg 78%
    23:00 +12°C° 0 mm 1 m/S 752 mmHg 81%

    übermorgen, 26 Oktober, Samstag

    Zeit Temperatur Niederschläge Wind Luftdruck Luftfeuchtigkeit
    00:00 +11°C° 0 mm 1 m/S 752 mmHg 82%
    01:00 +11°C° 0 mm 1 m/S 752 mmHg 83%
    02:00 +11°C° 0 mm 1 m/S 752 mmHg 84%
    03:00 +11°C° 0 mm 1 m/S 752 mmHg 84%
    04:00 +10°C° 0 mm 1 m/S 752 mmHg 85%
    05:00 +10°C° 0 mm 1 m/S 752 mmHg 85%
    06:00 +11°C° 0 mm 1 m/S 752 mmHg 82%
    07:00 +12°C° 0 mm 1 m/S 752 mmHg 79%
    08:00 +12°C° 0 mm 2 m/S 752 mmHg 76%
    09:00 +14°C° 0 mm 2 m/S 752 mmHg 70%
    10:00 +16°C° 0 mm 2 m/S 752 mmHg 64%
    11:00 +18°C° 0 mm 2 m/S 752 mmHg 58%
    12:00 +18°C° 0 mm 2 m/S 752 mmHg 56%
    13:00 +19°C° 0 mm 2 m/S 752 mmHg 54%
    14:00 +20°C° 0 mm 2 m/S 751 mmHg 52%
    15:00 +19°C° 0 mm 2 m/S 751 mmHg 56%
    16:00 +18°C° 0 mm 1 m/S 751 mmHg 61%
    17:00 +16°C° 0 mm 1 m/S 751 mmHg 66%
    18:00 +15°C° 0 mm 1 m/S 751 mmHg 68%
    19:00 +14°C° 0 mm 1 m/S 751 mmHg 70%
    20:00 +14°C° 0 mm 1 m/S 751 mmHg 72%
    21:00 +13°C° 0 mm 1 m/S 751 mmHg 74%
    22:00 +13°C° 0 mm 1 m/S 751 mmHg 76%
    23:00 +12°C° 0 mm 1 m/S 751 mmHg 79%

    27 Oktober, Sonntag

    Zeit Temperatur Niederschläge Wind Luftdruck Luftfeuchtigkeit
    00:00 +12°C° 0 mm 1 m/S 751 mmHg 81%
    01:00 +12°C° 0 mm 2 m/S 751 mmHg 83%
    02:00 +12°C° 0 mm 2 m/S 751 mmHg 85%
    03:00 +12°C° 0 mm 2 m/S 751 mmHg 86%
    04:00 +12°C° 0 mm 2 m/S 751 mmHg 87%
    05:00 +12°C° 0 mm 2 m/S 751 mmHg 88%
    06:00 +12°C° 0 mm 2 m/S 751 mmHg 85%
    07:00 +12°C° 0 mm 2 m/S 751 mmHg 82%
    08:00 +13°C° 0 mm 2 m/S 751 mmHg 79%
    09:00 +15°C° 0 mm 2 m/S 751 mmHg 72%
    10:00 +16°C° 0 mm 3 m/S 751 mmHg 65%
    11:00 +18°C° 0 mm 3 m/S 751 mmHg 58%
    12:00 +18°C° 0 mm 3 m/S 751 mmHg 56%
    13:00 +19°C° 0 mm 4 m/S 750 mmHg 54%
    14:00 +20°C° 0 mm 4 m/S 750 mmHg 52%
    15:00 +18°C° 0 mm 4 m/S 749 mmHg 57%
    16:00 +17°C° 0 mm 3 m/S 749 mmHg 62%
    17:00 +16°C° 0 mm 3 m/S 749 mmHg 67%
    18:00 +14°C° 0 mm 3 m/S 749 mmHg 69%
    19:00 +14°C° 0 mm 3 m/S 749 mmHg 70%
    20:00 +13°C° 0 mm 3 m/S 749 mmHg 71%
    21:00 +13°C° 0 mm 3 m/S 748 mmHg 72%
    22:00 +13°C° 0 mm 3 m/S 748 mmHg 73%
    23:00 +12°C° 0 mm 3 m/S 748 mmHg 74%

    28 Oktober, Montag

    Zeit Temperatur Niederschläge Wind Luftdruck Luftfeuchtigkeit
    00:00 +12°C° 0 mm 3 m/S 748 mmHg 75%
    01:00 +12°C° 0 mm 3 m/S 748 mmHg 75%
    02:00 +12°C° 0 mm 3 m/S 747 mmHg 75%
    03:00 +11°C° 0 mm 3 m/S 747 mmHg 77%
    04:00 +11°C° 0 mm 3 m/S 747 mmHg 78%
    05:00 +10°C° 0 mm 3 m/S 746 mmHg 79%
    06:00 +11°C° 0 mm 3 m/S 746 mmHg 75%
    07:00 +12°C° 0 mm 4 m/S 746 mmHg 72%
    08:00 +12°C° 0 mm 4 m/S 746 mmHg 68%
    09:00 +14°C° 0 mm 4 m/S 746 mmHg 62%
    10:00 +17°C° 0 mm 4 m/S 746 mmHg 55%
    11:00 +17°C° 0 mm 5 m/S 746 mmHg 49%
    12:00 +19°C° 0 mm 5 m/S 746 mmHg 47%
    13:00 +20°C° 0 mm 5 m/S 746 mmHg 44%
    14:00 +20°C° 0 mm 5 m/S 746 mmHg 42%
    15:00 +19°C° 0 mm 4 m/S 746 mmHg 48%
    16:00 +17°C° 0 mm 3 m/S 746 mmHg 53%
    17:00 +16°C° 0 mm 2 m/S 745 mmHg 59%
    18:00 +14°C° 0 mm 3 m/S 746 mmHg 63%
    19:00 +13°C° 0 mm 3 m/S 746 mmHg 66%
    20:00 +12°C° 0 mm 3 m/S 746 mmHg 70%
    21:00 +12°C° 0 mm 3 m/S 747 mmHg 75%
    22:00 +11°C° 0 mm 3 m/S 747 mmHg 79%
    23:00 +12°C° 0 mm 2 m/S 747 mmHg 84%

    29 Oktober, Dienstag

    Zeit Temperatur Niederschläge Wind Luftdruck Luftfeuchtigkeit
    00:00 +10°C° 0 mm 2 m/S 747 mmHg 85%
    01:00 +10°C° 0 mm 3 m/S 748 mmHg 86%
    02:00 +9°C° 0 mm 3 m/S 748 mmHg 87%
    03:00 +9°C° 0 mm 2 m/S 748 mmHg 84%
    04:00 +8°C° 0 mm 2 m/S 748 mmHg 81%
    05:00 +8°C° 0 mm 2 m/S 748 mmHg 78%
    06:00 +8°C° 0 mm 3 m/S 748 mmHg 73%
    07:00 +9°C° 0 mm 3 m/S 749 mmHg 69%
    08:00 +9°C° 0 mm 3 m/S 749 mmHg 64%
    09:00 +11°C° 0 mm 3 m/S 749 mmHg 59%
    10:00 +12°C° 0 mm 3 m/S 749 mmHg 53%
    11:00 +14°C° 0 mm 3 m/S 749 mmHg 48%
    12:00 +14°C° 0 mm 3 m/S 749 mmHg 47%
    13:00 +14°C° 0 mm 3 m/S 748 mmHg 46%
    14:00 +16°C° 0 mm 3 m/S 748 mmHg 45%
    15:00 +14°C° 0 mm 3 m/S 748 mmHg 48%
    16:00 +12°C° 0 mm 3 m/S 748 mmHg 51%
    17:00 +11°C° 0 mm 3 m/S 748 mmHg 55%
    18:00 +11°C° 0 mm 3 m/S 748 mmHg 55%
    19:00 +10°C° 0 mm 3 m/S 747 mmHg 56%
    20:00 +10°C° 0 mm 4 m/S 747 mmHg 56%
    21:00 +10°C° 0 mm 3 m/S 747 mmHg 58%
    22:00 +9°C° 0 mm 3 m/S 747 mmHg 61%
    23:00 +9°C° 0 mm 3 m/S 747 mmHg 63%

    30 Oktober, Mittwoch

    Zeit Temperatur Niederschläge Wind Luftdruck Luftfeuchtigkeit
    00:00 +9°C° 0 mm 3 m/S 746 mmHg 66%
    01:00 +9°C° 0 mm 3 m/S 746 mmHg 70%
    02:00 +8°C° 0 mm 3 m/S 746 mmHg 73%
    03:00 +8°C° 0 mm 3 m/S 745 mmHg 78%
    04:00 +8°C° 0 mm 3 m/S 745 mmHg 82%
    05:00 +8°C° 0 mm 2 m/S 745 mmHg 86%
    06:00 +9°C° 0 mm 2 m/S 745 mmHg 84%
    07:00 +10°C° 0 mm 3 m/S 745 mmHg 82%
    08:00 +10°C° 0 mm 3 m/S 745 mmHg 80%
    09:00 +12°C° 0 mm 3 m/S 745 mmHg 73%
    10:00 +14°C° 0 mm 3 m/S 745 mmHg 66%
    11:00 +16°C° 0 mm 3 m/S 745 mmHg 59%
    12:00 +17°C° 0 mm 3 m/S 745 mmHg 58%
    13:00 +17°C° 0 mm 3 m/S 745 mmHg 56%
    14:00 +17°C° 0 mm 3 m/S 745 mmHg 55%
    15:00 +16°C° 0 mm 3 m/S 745 mmHg 60%
    16:00 +13°C° 0 mm 3 m/S 745 mmHg 65%
    17:00 +12°C° 0 mm 3 m/S 745 mmHg 69%
    18:00 +11°C° 0 mm 3 m/S 745 mmHg 70%
    19:00 +10°C° 0 mm 3 m/S 745 mmHg 70%
    20:00 +10°C° 0 mm 3 m/S 745 mmHg 71%
    21:00 +9°C° 0 mm 2 m/S 745 mmHg 72%
    22:00 +9°C° 0 mm 2 m/S 744 mmHg 74%
    23:00 +9°C° 0 mm 2 m/S 744 mmHg 75%
    Mehr zeigen